Location: Cazavet
(43.0017°N, 1.0431°E)
Time: 08:07:17
(UTC+00:00)

Atlas Centaur 2 - Pass Details

Date: 18 January 2026
Orbit: 456 x 1249 km, 30.4° (Epoch: 9 February)

Event Time Altitude Azimuth Distance (km) Brightness Sun altitude
Exits shadow 05:19:44 15° 208° (SSW) 1,927 3.9 -22.2°
Maximum altitude 05:22:27 22° 171° (S) 1,717 4.0 -21.7°
Drops below altitude 10° 05:27:09 10° 122° (ESE) 2,642 5.7 -20.8°
Sets 05:30:39 0° 109° (ESE) 3,746 7.1 -20.2°
